www.pogodaiklimat.ru

Погода и климат >> Архив погоды >> Австралия >> Северная территория >> Маяк Кейп-Дон


ПОГОДА на Маяке Кейп-Дон

  • Прогноз погоды на Маяке Кейп-Дон
  • Монитор погоды на Маяке Кейп-Дон

АРХИВ ПОГОДЫ на Маяке Кейп-Дон

Время (UTC), дата Ветер
(напр.,м/с)
 
Видим.   Явления Облачность Т
(С)
Тd
(С)
f
(%)
Тe
(С)
Тes
(С)
Комфортность P
(гПа)
Po
(гПа)
Тmin
(С)
Tmax
(С)
R
(мм)
R24
(мм)
S
(см)
17 13.09 штиль 0 н/о н/о +16.7 +6.2 50 +17 +17 1015.7 1010.7
20 13.09 С 1 н/о н/о +13.0 +7.2 68 +14 +14 1017.3 1012.2
23 13.09 ЮЗ 1 н/о н/о +21.8 +10.3 48 +24 +24 комфорт 1019.0 1013.9
02 14.09 В 9 н/о н/о +32.9 +3.8 16 +30 +30 жарко 1016.9 1011.8 +12.6
05 14.09 В 5 н/о н/о +34.4 +2.0 13 +31 +31 жарко 1013.1 1008.1
08 14.09 В 3 н/о н/о +34.0 +1.7 13 +31 +31 жарко 1012.4 1007.4
11 14.09 Ю 2 н/о н/о +24.1 +4.5 28 +24 +24 комфорт 1014.3 1009.3
14 14.09 С 3 н/о н/о +22.0 +15.1 65 +26 +26 душно 1015.8 1010.8 +35.9
17 14.09 штиль 0 н/о н/о +16.5 +13.4 82 +16 +16 1015.2 1010.2
20 14.09 С 1 н/о н/о +15.1 +13.3 89 +16 +16 1015.9 1010.9
23 14.09 ЮВ 2 н/о н/о +22.7 +14.8 61 +26 +26 жарко 1017.8 1012.7
02 15.09 ЮВ 9 н/о н/о +33.2 +1.1 13 +30 +30 жарко 1015.1 1010.1 +13.4
05 15.09 ЮВ 6 н/о н/о +35.6 +3.0 13 +32 +32 жарко 1011.8 1006.8
08 15.09 В 6 н/о н/о +34.9 +2.4 13 +32 +32 жарко 1011.4 1006.4
11 15.09 С 1 н/о н/о +24.1 +8.9 38 +25 +25 комфорт 1013.3 1008.3
14 15.09 С 2 н/о н/о +22.5 +16.5 69 +27 +27 душно 1015.4 1010.4 +36.9
17 15.09 штиль 0 н/о н/о +18.3 +15.2 82 +19 +19 1015.5 1010.5
20 15.09 ЮВ 2 н/о н/о +16.0 +14.7 92 +16 +16 1015.6 1010.6
23 15.09 штиль 0 н/о н/о +21.6 +16.6 73 +25 +25 комфорт 1017.0 1011.9
02 16.09 ЮВ 4 н/о н/о +31.3 +5.7 20 +29 +29 жарко 1015.6 1010.6 +14.8
05 16.09 Ю 3 н/о н/о +34.5 +2.1 13 +31 +31 жарко 1012.1 1007.1
08 16.09 В 6 н/о н/о +34.4 +3.1 14 +31 +31 жарко 1010.8 1005.8
11 16.09 В 3 н/о н/о +25.5 +6.2 29 +25 +25 комфорт 1013.2 1008.2
14 16.09 С 3 н/о н/о +23.1 +19.7 81 +30 +30 очень
душно
1014.8 1009.8 +36.2
17 16.09 штиль 0 н/о н/о +18.1 +16.4 90 +18 +18 1014.4 1009.4
20 16.09 штиль 0 н/о н/о +18.6 +17.9 96 +20 +20 1015.3 1010.3
23 16.09 ЮЗ 1 н/о н/о +22.7 +18.5 77 +28 +28 душно 1017.0 1011.9
02 17.09 В 4 н/о н/о +32.3 +12.5 30 +33 +33 жарко 1015.9 1010.9 +17.1
05 17.09 ЮВ 6 н/о н/о +35.2 +5.6 16 +33 +33 жарко 1012.5 1007.5
08 17.09 СВ 2 н/о н/о +34.8 +2.3 13 +32 +32 жарко 1011.5 1006.5
11 17.09 С 1 н/о н/о +22.3 +9.5 44 +24 +24 комфорт 1013.6 1008.6
14 17.09 С 2 н/о н/о +23.1 +19.5 80 +30 +30 очень
душно
1016.2 1011.2 +36.5
17 17.09 В 2 н/о н/о +20.2 +18.9 92 +25 +25 комфорт 1015.7 1010.7
20 17.09 штиль 0 н/о н/о +17.7 +16.2 91 +18 +18 1016.4 1011.4
23 17.09 штиль 0 н/о н/о +23.1 +19.7 81 +30 +30 очень
душно
1018.2 1013.1
02 18.09 В 4 н/о н/о +32.4 +13.6 32 +34 +34 очень
жарко
1016.9 1011.8 +17.1
05 18.09 ЮВ 7 н/о н/о +36.5 +5.7 15 +34 +34 очень
жарко
1012.9 1007.9
08 18.09 ЮВ 5 н/о н/о +36.4 -0.1 10 +33 +33 жарко 1011.7 1006.7
11 18.09 штиль 0 н/о н/о +25.6 +1.7 21 +24 +24 комфорт 1013.3 1008.3
14 18.09 С 2 н/о н/о +24.0 +20.3 80 +30 +30 очень
душно
1015.6 1010.6 +38.3
17 18.09 С 1 н/о н/о +21.8 +19.9 89 +27 +27 душно 1015.1 1010.1
20 18.09 штиль 0 н/о н/о +17.7 +16.2 91 +18 +18 1014.7 1009.7
23 18.09 штиль 0 н/о н/о +20.7 +20.2 97 +25 +25 комфорт 1016.5 1011.5
02 19.09 В 3 н/о н/о +33.4 +8.1 21 +32 +32 жарко 1014.8 1009.8 +17.3
05 19.09 В 5 н/о н/о +37.3 +1.9 11 +34 +34 очень
жарко
1010.6 1005.6
08 19.09 В 4 н/о н/о +36.5 +1.3 11 +33 +33 жарко 1009.6 1004.6
11 19.09 СЗ 5 н/о н/о +26.9 +19.3 63 +32 +32 очень
душно
1012.3 1007.3
14 19.09 штиль 0 н/о н/о +22.2 +18.0 77 +27 +27 душно 1014.0 1009.0 +38.5
17 19.09 С 3 н/о н/о +20.9 +19.2 90 +26 +26 душно 1012.7 1007.7
20 19.09 штиль 0 н/о н/о +18.1 +17.3 95 +18 +18 1014.3 1009.3
23 19.09 С 1 н/о н/о +22.7 +20.0 85 +29 +29 очень
душно
1015.7 1010.7
02 20.09 З 3 н/о н/о +32.5 +13.7 32 +34 +34 очень
жарко
1014.4 1009.4 +17.4
05 20.09 ЮВ 3 н/о н/о +35.8 +8.6 19 +34 +34 очень
жарко
1010.8 1005.8
08 20.09 С 2 н/о н/о +35.5 +7.6 18 +34 +34 очень
жарко
1010.0 1005.0
11 20.09 СЗ 5 н/о н/о +27.3 +19.1 61 +33 +33 очень
душно
1012.1 1007.1
14 20.09 СЗ 2 н/о н/о +23.7 +19.6 78 +29 +29 душно 1013.1 1008.1 +37.6

 

Местоположение метеостанции Маяк Кейп-Дон (Северная территория, Австралия): широта -13.83 долгота 131.18 высота над уровнем моря 50 м.

В архиве по умолчанию представлена погода на Маяке Кейп-Дон за последнюю неделю. Архивные данные за месяц целиком и за предыдущие месяцы, начиная с января 2011 года, Вы можете получить, выбрав интересующий диапазон дат из раскрывающегося списка и нажав кнопку "Ввод!".


*Определитесь, кто Вы:
робот инопланетянин человек

Внимание! Время в таблицах - всемирное. Для получения местного времени необходимо прибавить поправку, которая равна 9.5 ч.

Смотрите также архив погоды в соседних городах и на ближайших метеорологических станциях:

Погода в Батчелоре (Северная территория, Австралия) (88 км)
Погода в Манбуллу Ксиро (Северная территория, Австралия) (131 км)
Погода в Милд Пойнт (Северная территория, Австралия) (137 км)
Погода в Тиндале (Северная территория, Австралия) (148 км)
Погода на Острове Дам-ин-Мирре (Северная территория, Австралия) (160 км)
Погода в Дарвине (Северная территория, Австралия) (161 км)
Погода в Порт Китс (Северная территория, Австралия) (184 км)
Погода в Пойнт Стьюарт (Северная территория, Австралия) (193 км)
Погода на Центральном плато Арнем (Северная территория, Австралия) (213 км)
Погода в Джаберу (Северная территория, Австралия) (227 км)

Пояснения к столбцам:

Ветер - указаны скорость ветра в м/с - средняя за 10 мин, порывы в срок и между сроками (в фигурных скобках) и направление, откуда дует ветер: С - северный, СВ - северо-восточный, В - восточный, ЮВ - юго-восточный, Ю - южный, ЮЗ - юго-западный, З - западный, СЗ - северо-западный.
Видимость - горизонтальная дальность видимости в метрах или километрах. При видимости от 1 до 10 км при отсутствии осадков обычно наблюдается дымка, при ухудшении видимости до 1 км и менее - туман. В сухую погоду видимость может ухудшаться дымом, пылью или мглою.
Явления - указаны атмосферные явления, наблюдавшиеся в срок или в последний час перед сроком; фигурными скобками обозначены явления, наблюдавшиеся между сроками (за 1-3 часа до срока); квадратными скобками обозначены град или гололедные отложения с указанием их диаметра в мм.
Облачность - указаны через наклонную черту общая и нижняя облачность в баллах и высота нижней границы облаков в метрах; квадратными скобками обозначены формы облаков: Ci - перистые, Cs - перисто-слоистые, Cc - перисто-кучевые, Ac - высококучевые, As - высокослоистые, Sc - слоисто-кучевые, Ns - слоисто-дождевые, Cu - кучевые, Cb - кучево-дождевые. Подробнее классификацию облаков см. в Атласе облаков (PDF).
T - Температура воздуха - температура, измеренная на высоте 2 м над землей.
Td - Температура точки росы - температура, при понижении до которой содержащийся в воздухе водяной пар достигнет насыщения.
f - Относительная влажность воздуха - влажноcть воздуха, измеренная на высоте 2 м над землей.
Te - Эффективная температура - температура, которую ощущает одетый по сезону человек в тени. Характеристика душности погоды. При расчете учитывается влияние влажности воздуха и скорости ветра на теплоощущения человека.
Tes - Эффективная температура на солнце - температура, которую ощущает человек, с поправкой на солнечный нагрев. Характеристика знойности погоды. Зависит от высоты солнца над горизонтом, облачности и скорости ветра. Ночью, в пасмурную погоду, а также при ветре 12 м/с и более поправка равна нулю.
P - Атмосферное давление - приведенное к уровню моря атмосферное давление.
Po - Атмосферное давление - измеренное на уровне метеостанции атмосферное давление.
Tmin - Минимальная температура - минимум температуры воздуха на высоте 2 м над землей.
Tmax - Максимальная температура - максимум температуры воздуха на высоте 2 м над землей.
R - Количество осадков - Количество выпавших осадков за период времени, мм. При наведении курсора мыши на число - период времени, за который выпало указанное количество осадков.
R24 - Количество осадков - Количество выпавших осадков за 24 часа, мм.
S - Снежный покров - Высота снежного покрова, см. При наведении курсора мыши на число - состояние снежного покрова и степень покрытия местности в баллах.